Location: Tom
(33.0437°N, 96.9452°W)
Time: 19:29:15
(UTC-06:00)

N. Korean satellite - Pass Details

Date: 30 January 2019
Orbit: 457 x 510 km, 97.2° (Epoch: 16 February)

Event Time Altitude Azimuth Distance (km) Brightness Sun altitude
Rises 05:47:37 0° 31° (NNE) 2,568 10.5 -20.5°
Reaches altitude 10° 05:50:16 10° 52° (NE) 1,670 9.9 -19.9°
Maximum altitude 05:52:41 17° 95° (E) 1,275 9.7 -19.4°
Drops below altitude 10° 05:55:05 10° 137° (SE) 1,641 10.0 -18.9°
Sets 05:57:38 0° 158° (SSE) 2,502 10.6 -18.4°
